Location: Dürabuch
(48.2640°N, 11.2185°E)
Time: 21:56:20
(UTC+00:00)

Cosmos 2333 Rocket - Pass Details

Date: 23 May 2024
Orbit: 839 x 863 km, 70.8° (Epoch: 14 June)

Event Time Altitude Azimuth Distance (km) Brightness Sun altitude
Rises 02:30:52 0° 326° (NW) 3,426 5.5 -8.0°
Reaches altitude 10° 02:33:28 10° 319° (NW) 2,490 4.7 -7.7°
Maximum altitude 02:38:41 38° 253° (WSW) 1,283 2.7 -7.1°
Drops below altitude 10° 02:43:55 10° 187° (S) 2,488 4.2 -6.4°
Sets 02:46:31 0° 179° (S) 3,423 5.0 -6.1°
